Location: Unspecified
(0.0000°N, 0.0000°E)
Time: 02:36:48
(UTC+00:00)

TIGRISAT - Pass Details

Date: 17 December 2019
Orbit: 604 x 690 km, 97.7° (Epoch: 24 January)

Event Time Altitude Azimuth Distance (km) Brightness Sun altitude
Exits shadow 19:48:38 11° 156° (SSE) 1,876 ? -25.6°
Drops below altitude 10° 19:48:54 10° 158° (SSE) 1,965 ? -25.7°
Sets 19:51:20 0° 171° (S) 2,864 ? -26.2°
